Change the Weather History Date:

Monday, October 8, 2012

  Actual Average Record
Temperature  
Mean Temperature 50 °F -  
Max Temperature 64 °F 60 °F 84 °F (2010)
Min Temperature 37 °F 40 °F 26 °F (2000)
Degree Days  
Heating Degree Days 14    
Moisture  
Dew Point 31 °F    
Average Humidity 57    
Maximum Humidity 71    
Minimum Humidity 32    
Precipitation  
Precipitation 0.00 in - - ()
Sea Level Pressure  
Sea Level Pressure 29.76 in    
Wind  
Wind Speed 8 mph (SSW)    
Max Wind Speed 16 mph    
Max Gust Speed 24 mph    
Visibility 10 miles    
Events      
Averages and records for this station are not official NWS values.
T = Trace of Precipitation, MM = Missing Value Source: NWS Daily Summary

Daily Weather History Graph

Daily Weather History Graph

Search for Another Location

Airport or City:

Trip Planner

Search our weather history database for the weather conditions in past years. The results will help you decide how hot, cold, wet, or windy it might be!

Date:

Astronomy

Oct. 08, 2012 Rise Set
Actual Time 7:20 AM CDT 6:39 PM CDT
Civil Twilight 6:50 AM CDT 7:08 PM CDT
Nautical Twilight 6:16 AM CDT 7:42 PM CDT
Astronomical Twilight 5:42 AM CDT 8:16 PM CDT
Moon No Moon Rise 2:45 PM CDT (10/8)
Length of Visible Light 12h 17m
Length of Day
11h 18m
Last Quarter, 46% of the Moon is Illuminated
Oct 8
Last Quarter
Oct 15
New
Oct 21
First Quarter
Oct 29
Full
Nov 6
Last Quarter

Hourly Weather History & Observations

Time (CDT) Temp. Windchill Dew Point Humidity Pressure Visibility Wind Dir Wind Speed Gust Speed Precip Events Conditions
12:14 AM 37.4 °F 31.4 °F 26.6 °F 65% 29.86 in 10.0 mi SSE 8.1 mph - N/A   Clear
12:34 AM 37.4 °F 31.4 °F 26.6 °F 65% 29.86 in 10.0 mi SSE 8.1 mph - N/A   Clear
12:54 AM 37.4 °F 31.4 °F 26.6 °F 65% 29.85 in 10.0 mi SSE 8.1 mph - N/A   Clear
1:14 AM 37.4 °F 30.8 °F 26.6 °F 65% 29.85 in 10.0 mi South 9.2 mph - N/A   Clear
1:33 AM 37.4 °F 31.4 °F 26.6 °F 65% 29.84 in 10.0 mi South 8.1 mph - N/A   Clear
1:54 AM 37.4 °F 31.4 °F 26.6 °F 65% 29.84 in 10.0 mi South 8.1 mph - N/A   Clear
2:14 AM 37.4 °F 31.4 °F 26.6 °F 65% 29.84 in 10.0 mi South 8.1 mph - N/A   Clear
2:34 AM 37.4 °F 31.4 °F 26.6 °F 65% 29.83 in 10.0 mi South 8.1 mph - N/A   Clear
2:54 AM 37.4 °F 32.1 °F 26.6 °F 65% 29.83 in 10.0 mi South 6.9 mph - N/A   Clear
3:14 AM 39.2 °F 34.2 °F 26.6 °F 61% 29.82 in 10.0 mi South 6.9 mph - N/A   Clear
3:34 AM 41.0 °F 36.4 °F 26.6 °F 57% 29.81 in 10.0 mi South 6.9 mph - N/A   Clear
3:54 AM 41.0 °F 35.8 °F 26.6 °F 57% 29.81 in 10.0 mi South 8.1 mph - N/A   Clear
4:14 AM 41.0 °F 35.8 °F 26.6 °F 57% 29.81 in 10.0 mi South 8.1 mph - N/A   Clear
4:34 AM 39.2 °F 34.2 °F 26.6 °F 61% 29.80 in 10.0 mi South 6.9 mph - N/A   Clear
4:54 AM 41.0 °F 36.4 °F 26.6 °F 57% 29.80 in 10.0 mi South 6.9 mph - N/A   Clear
5:14 AM 41.0 °F 35.8 °F 26.6 °F 57% 29.79 in 10.0 mi South 8.1 mph - N/A   Clear
5:34 AM 41.0 °F 35.8 °F 26.6 °F 57% 29.79 in 10.0 mi South 8.1 mph - N/A   Clear
5:54 AM 39.2 °F 33.6 °F 26.6 °F 61% 29.78 in 10.0 mi South 8.1 mph - N/A   Scattered Clouds
6:13 AM 41.0 °F 36.4 °F 28.4 °F 61% 29.78 in 10.0 mi South 6.9 mph - N/A   Scattered Clouds
6:34 AM 37.4 °F 32.1 °F 28.4 °F 70% 29.77 in 10.0 mi South 6.9 mph - N/A   Scattered Clouds
6:45 AM 39.2 °F 35.0 °F 28.4 °F 65% 29.97 in 10.0 mi South 5.8 mph - N/A   Mostly Cloudy
6:54 AM 41.0 °F 36.4 °F 28.4 °F 61% 29.77 in 10.0 mi South 6.9 mph - N/A   Mostly Cloudy
7:45 AM 42.8 °F 37.5 °F 28.4 °F 57% 29.76 in 10.0 mi South 9.2 mph - N/A   Mostly Cloudy
8:45 AM 44.6 °F 40.7 °F 28.4 °F 53% 29.76 in 10.0 mi South 6.9 mph - N/A   Mostly Cloudy
9:50 AM 46.4 °F 42.4 °F 30.2 °F 53% 29.74 in 10.0 mi SSE 8.1 mph - N/A   Overcast
11:45 AM 53.6 °F - 33.8 °F 47% 29.70 in 10.0 mi South 12.7 mph - N/A   Overcast
1:45 PM 55.4 °F - 33.8 °F 44% 29.63 in 10.0 mi South 15.0 mph 18.4 mph N/A   Mostly Cloudy
2:45 PM 57.2 °F - 35.6 °F 44% 29.59 in 10.0 mi South 12.7 mph 20.7 mph N/A   Light Drizzle
3:45 PM 62.6 °F - 33.8 °F 34% 29.58 in 10.0 mi South 15.0 mph - N/A   Mostly Cloudy
4:45 PM 62.6 °F - 33.8 °F 34% 29.58 in 10.0 mi SSW 11.5 mph 19.6 mph N/A   Overcast
5:50 PM 64.4 °F - 33.8 °F 32% 29.59 in 10.0 mi SW 9.2 mph - N/A   Mostly Cloudy
6:45 PM 62.6 °F - 37.4 °F 39% 29.62 in 10.0 mi West 11.5 mph - N/A   Scattered Clouds
7:55 PM 60.8 °F - 41.0 °F 48% 29.65 in 12.0 mi West 12.7 mph 18.4 mph N/A   Mostly Cloudy
8:55 PM 55.4 °F - 41.0 °F 58% 29.70 in 12.0 mi WNW 16.1 mph 24.2 mph N/A   Mostly Cloudy
9:14 PM 53.6 °F - 39.2 °F 58% 29.71 in 10.0 mi NW 9.2 mph - N/A   Clear
9:34 PM 53.6 °F - 39.2 °F 58% 29.72 in 10.0 mi WNW 5.8 mph - N/A   Clear
9:54 PM 51.8 °F - 39.2 °F 62% 29.72 in 10.0 mi West 5.8 mph - N/A   Clear
10:14 PM 51.8 °F - 39.2 °F 62% 29.72 in 10.0 mi West 5.8 mph - N/A   Clear
10:54 PM 51.8 °F - 39.2 °F 62% 29.73 in 10.0 mi WSW 3.5 mph - N/A   Clear
11:34 PM 48.2 °F - 39.2 °F 71% 29.73 in 10.0 mi SSW 3.5 mph - N/A   Clear
11:54 PM 48.2 °F - 39.2 °F 71% 29.73 in 10.0 mi SSW 4.6 mph - N/A   Clear